iso_date,epoch_date,Year,Hour,Min,DOY,POS_DOY,Lat,Lon,BP,Ts,Ta,has_bp,has_ts,has_ta,BuoyID,Buoy_Type,Buoy_Owner,Logistics,Hemisphere
2021-08-19T12:25:03Z,1629375903,2021,12,25,231.5174,231.5174,70.05694,-52.43454,-999.00,-999.00,-999.0,no,no,no,4435019,SPIT,USIABP,ICE-PPR<br>DiskoBay,North
2021-08-19T12:56:00Z,1629377761,2021,12,56,231.5389,231.5389,70.0741,-52.56907,-999.00,-999.00,-999.0,no,no,no,4435019,SPIT,USIABP,ICE-PPR<br>DiskoBay,North
2021-08-19T13:25:58Z,1629379558,2021,13,26,231.5597,231.5597,70.06281,-52.55997,-999.00,-999.00,-999.0,no,no,no,4435019,SPIT,USIABP,ICE-PPR<br>DiskoBay,North
2021-08-19T15:25:03Z,1629386703,2021,15,25,231.6424,231.6424,70.2784,-53.55596,-999.00,-999.00,-999.0,no,no,no,4435019,SPIT,USIABP,ICE-PPR<br>DiskoBay,North
2021-08-19T15:55:00Z,1629388500,2021,15,55,231.6632,231.6632,70.29845,-53.64231,-999.00,-999.00,-999.0,no,no,no,4435019,SPIT,USIABP,ICE-PPR<br>DiskoBay,North
2021-08-19T16:24:57Z,1629390298,2021,16,25,231.684,231.684,70.31828,-53.81311,-999.00,-999.00,-999.0,no,no,no,4435019,SPIT,USIABP,ICE-PPR<br>DiskoBay,North
2021-08-19T16:54:02Z,1629392043,2021,16,54,231.7042,231.7042,70.31871,-53.81851,-999.00,-999.00,-999.0,no,no,no,4435019,SPIT,USIABP,ICE-PPR<br>DiskoBay,North
2021-08-19T18:52:59Z,1629399180,2021,18,53,231.7868,231.7868,70.20872,-52.89152,-999.00,-999.00,-999.0,no,no,no,4435019,SPIT,USIABP,ICE-PPR<br>DiskoBay,North
2021-08-19T19:22:56Z,1629400977,2021,19,23,231.8076,231.8076,70.13212,-52.75908,-999.00,-999.00,-999.0,no,no,no,4435019,SPIT,USIABP,ICE-PPR<br>DiskoBay,North
2021-08-19T19:53:02Z,1629402782,2021,19,53,231.8285,231.8285,70.08165,-52.5712,-999.00,-999.00,-999.0,no,no,no,4435019,SPIT,USIABP,ICE-PPR<br>DiskoBay,North
2021-08-19T20:22:59Z,1629404580,2021,20,23,231.8493,231.8493,70.06574,-52.36603,-999.00,-999.00,-999.0,no,no,no,4435019,SPIT,USIABP,ICE-PPR<br>DiskoBay,North
2021-08-19T20:52:56Z,1629406377,2021,20,53,231.8701,231.8701,70.06635,-52.36371,-999.00,-999.00,-999.0,no,no,no,4435019,SPIT,USIABP,ICE-PPR<br>DiskoBay,North
2021-08-19T21:23:02Z,1629408182,2021,21,23,231.891,231.891,70.06618,-52.36497,-999.00,-999.00,-999.0,no,no,no,4435019,SPIT,USIABP,ICE-PPR<br>DiskoBay,North
2021-08-19T21:52:59Z,1629409980,2021,21,53,231.9118,231.9118,70.06574,-52.36566,-999.00,-999.00,-999.0,no,no,no,4435019,SPIT,USIABP,ICE-PPR<br>DiskoBay,North
2021-08-19T22:22:56Z,1629411777,2021,22,23,231.9326,231.9326,70.06618,-52.36472,-999.00,-999.00,-999.0,no,no,no,4435019,SPIT,USIABP,ICE-PPR<br>DiskoBay,North
2021-08-19T22:52:01Z,1629413522,2021,22,52,231.9528,231.9528,70.06577,-52.36588,-999.00,-999.00,-999.0,no,no,no,4435019,SPIT,USIABP,ICE-PPR<br>DiskoBay,North
2021-08-19T23:21:59Z,1629415319,2021,23,22,231.9736,231.9736,70.0661,-52.36493,-999.00,-999.00,-999.0,no,no,no,4435019,SPIT,USIABP,ICE-PPR<br>DiskoBay,North
2021-08-19T23:51:56Z,1629417116,2021,23,52,231.9944,231.9944,70.06598,-52.36416,-999.00,-999.00,-999.0,no,no,no,4435019,SPIT,USIABP,ICE-PPR<br>DiskoBay,North
2021-08-20T00:22:01Z,1629418922,2021,0,22,232.0153,232.0153,70.06547,-52.36227,-999.00,-999.00,-999.0,no,no,no,4435019,SPIT,USIABP,ICE-PPR<br>DiskoBay,North
2021-08-20T00:50:58Z,1629420659,2021,0,51,232.0354,232.0354,70.06541,-52.3624,-999.00,-999.00,-999.0,no,no,no,4435019,SPIT,USIABP,ICE-PPR<br>DiskoBay,North
2021-08-20T01:20:55Z,1629422456,2021,1,21,232.0562,232.0562,70.06531,-52.36225,-999.00,-999.00,-999.0,no,no,no,4435019,SPIT,USIABP,ICE-PPR<br>DiskoBay,North
2021-08-20T01:51:01Z,1629424261,2021,1,51,232.0771,232.0771,70.06514,-52.36337,-999.00,-999.00,-999.0,no,no,no,4435019,SPIT,USIABP,ICE-PPR<br>DiskoBay,North
2021-08-20T02:21:59Z,1629426119,2021,2,22,232.0986,232.0986,70.06516,-52.36392,-999.00,-999.00,-999.0,no,no,no,4435019,SPIT,USIABP,ICE-PPR<br>DiskoBay,North
2021-08-20T03:21:01Z,1629429661,2021,3,21,232.1396,232.1396,70.06507,-52.36351,-999.00,-999.00,-999.0,no,no,no,4435019,SPIT,USIABP,ICE-PPR<br>DiskoBay,North
2021-08-20T03:50:58Z,1629431459,2021,3,51,232.1604,232.1604,70.06507,-52.36282,-999.00,-999.00,-999.0,no,no,no,4435019,SPIT,USIABP,ICE-PPR<br>DiskoBay,North
2021-08-20T04:20:55Z,1629433256,2021,4,21,232.1812,232.1812,70.06489,-52.35995,-999.00,-999.00,-999.0,no,no,no,4435019,SPIT,USIABP,ICE-PPR<br>DiskoBay,North
2021-08-20T04:50:00Z,1629435001,2021,4,50,232.2014,232.2014,70.06443,-52.36011,-999.00,-999.00,-999.0,no,no,no,4435019,SPIT,USIABP,ICE-PPR<br>DiskoBay,North
2021-08-20T05:19:58Z,1629436798,2021,5,20,232.2222,232.2222,70.06493,-52.35962,-999.00,-999.00,-999.0,no,no,no,4435019,SPIT,USIABP,ICE-PPR<br>DiskoBay,North
2021-08-20T05:50:03Z,1629438604,2021,5,50,232.2431,232.2431,70.06478,-52.35947,-999.00,-999.00,-999.0,no,no,no,4435019,SPIT,USIABP,ICE-PPR<br>DiskoBay,North
2021-08-20T06:20:00Z,1629440401,2021,6,20,232.2639,232.2639,70.0647,-52.35992,-999.00,-999.00,-999.0,no,no,no,4435019,SPIT,USIABP,ICE-PPR<br>DiskoBay,North
2021-08-20T06:49:58Z,1629442198,2021,6,50,232.2847,232.2847,70.06458,-52.36047,-999.00,-999.00,-999.0,no,no,no,4435019,SPIT,USIABP,ICE-PPR<br>DiskoBay,North
2021-08-20T08:18:57Z,1629447538,2021,8,19,232.3465,232.3465,70.06491,-52.35959,-999.00,-999.00,-999.0,no,no,no,4435019,SPIT,USIABP,ICE-PPR<br>DiskoBay,North
2021-08-20T09:19:00Z,1629451140,2021,9,19,232.3882,232.3882,70.06471,-52.36133,-999.00,-999.00,-999.0,no,no,no,4435019,SPIT,USIABP,ICE-PPR<br>DiskoBay,North
2021-08-20T11:17:57Z,1629458277,2021,11,18,232.4708,232.4708,70.00097,-52.3693,-999.00,-999.00,-999.0,no,no,no,4435019,SPIT,USIABP,ICE-PPR<br>DiskoBay,North
2021-08-20T11:48:02Z,1629460083,2021,11,48,232.4917,232.4917,70.00076,-52.37454,-999.00,-999.00,-999.0,no,no,no,4435019,SPIT,USIABP,ICE-PPR<br>DiskoBay,North
2021-08-20T13:18:02Z,1629465483,2021,13,18,232.5542,232.5542,70.00237,-52.39671,-999.00,-999.00,-999.0,no,no,no,4435019,SPIT,USIABP,ICE-PPR<br>DiskoBay,North
2021-08-20T13:48:00Z,1629467280,2021,13,48,232.575,232.575,70.00323,-52.40649,-999.00,-999.00,-999.0,no,no,no,4435019,SPIT,USIABP,ICE-PPR<br>DiskoBay,North
2021-08-20T14:48:02Z,1629470883,2021,14,48,232.6167,232.6167,70.00489,-52.42198,-999.00,-999.00,-999.0,no,no,no,4435019,SPIT,USIABP,ICE-PPR<br>DiskoBay,North
2021-08-20T15:18:00Z,1629472680,2021,15,18,232.6375,232.6375,70.00575,-52.42773,-999.00,-999.00,-999.0,no,no,no,4435019,SPIT,USIABP,ICE-PPR<br>DiskoBay,North
2021-08-20T16:46:59Z,1629478020,2021,16,47,232.6993,232.6993,70.00915,-52.43604,-999.00,-999.00,-999.0,no,no,no,4435019,SPIT,USIABP,ICE-PPR<br>DiskoBay,North
2021-08-20T17:16:56Z,1629479817,2021,17,17,232.7201,232.7201,70.01027,-52.43201,-999.00,-999.00,-999.0,no,no,no,4435019,SPIT,USIABP,ICE-PPR<br>DiskoBay,North
